This is the latest recevied weather packets stored in our database for station/object KE9DBJ-13. If no packets are shown the sender has not sent any weather packets the latest 10 day(s).
| Time | Temp. | Humidity | Pressure | Rain* | Wind** | Luminosity | Snow |
|---|---|---|---|---|---|---|---|
| 1777570202 | 16.11° C | 42% | 1016.4 hPa | 0 mm | - | - | - |
| 1777569602 | 15.56° C | 38% | 1016.4 hPa | 0 mm | - | - | - |
| 1777569003 | 15° C | 39% | 1016.6 hPa | 0 mm | - | - | - |
| 1777568403 | 15° C | 40% | 1016.8 hPa | 0 mm | - | - | - |
| 1777567803 | 15° C | 41% | 1016.9 hPa | 0 mm | - | - | - |
| 1777567203 | 15° C | 43% | 1016.9 hPa | 0 mm | - | - | - |
| 1777566603 | 15° C | 43% | 1016.9 hPa | 0 mm | - | - | - |
| 1777566003 | 14.44° C | 44% | 1017 hPa | 0 mm | - | - | - |
| 1777565403 | 14.44° C | 45% | 1017.1 hPa | 0 mm | - | - | - |
| 1777564803 | 13.89° C | 47% | 1017.2 hPa | 0 mm | - | - | - |
| 1777564203 | 14.44° C | 47% | 1017.1 hPa | 0 mm | - | - | - |
| 1777563603 | 13.33° C | 50% | 1017.2 hPa | 0 mm | - | - | - |
| 1777563003 | 12.78° C | 50% | 1017.2 hPa | 0 mm | - | - | - |
| 1777562403 | 12.78° C | 52% | 1017.4 hPa | 0 mm | - | - | - |
| 1777561802 | 12.78° C | 55% | 1017.4 hPa | 0 mm | - | - | - |
| 1777561202 | 12.22° C | 54% | 1017.3 hPa | 0 mm | - | - | - |
| 1777560603 | 12.22° C | 56% | 1017.3 hPa | 0 mm | - | - | - |
| 1777560002 | 11.67° C | 59% | 1017.3 hPa | 0 mm | - | - | - |
| 1777559402 | 11.11° C | 60% | 1017.4 hPa | 0 mm | - | - | - |
| 1777558802 | 11.11° C | 61% | 1017.4 hPa | 0 mm | - | - | - |
| 1777558202 | 10.56° C | 62% | 1017.4 hPa | 0 mm | - | - | - |
| 1777557602 | 9.44° C | 67% | 1017.3 hPa | 0 mm | - | - | - |
| 1777557002 | 9.44° C | 67% | 1017.3 hPa | 0 mm | - | - | - |
| 1777556402 | 8.89° C | 68% | 1017.5 hPa | 0 mm | - | - | - |
| 1777555802 | 8.89° C | 70% | 1017.4 hPa | 0 mm | - | - | - |
* Rain latest hour (hover to see other rain measurements)
** Current wind speed in m/s (hover to see current wind gust speed)